Location: Agendoh
(31.0664°N, 8.9343°W)
Time: 17:26:57
(UTC+00:00)

Lacrosse 5 - Pass Details

Date: 01 July 2022
Orbit: 714 x 724 km, 57.0° (Epoch: 09 March)

Event Time Altitude Azimuth Distance (km) Brightness Sun altitude
Rises 23:02:13 0° 319° (NW) 3,136 6.2 -31.0°
Reaches altitude 10° 23:04:37 10° 317° (NW) 2,211 5.2 -31.3°
Enters shadow 23:07:55 40° 304° (NW) 1,059 3.0 -31.6°
